| time (UTC) | temp C | wind direction | speed KPH | gust KPH | rain 1hr cm | rain 24hr cm | rain mn cm | humidity % | barometer mb |
| 20260905091607 | 20 | 0 | 0.0 | 1.6 | 0.00 | 0.10 | 0.10 | 88 | 1007.9 |
| 20260905090103 | 20 | 0 | 0.0 | 1.6 | 0.00 | 0.10 | 0.10 | 88 | 1007.9 |
| 20260905084607 | 21 | 0 | 0.0 | 1.6 | 0.00 | 0.10 | 0.10 | 88 | 1007.8 |
| 20260905083058 | 21 | 0 | 0.0 | 3.2 | 0.00 | 0.10 | 0.10 | 89 | 1007.7 |
| 20260905081619 | 21 | 0 | 0.0 | 1.6 | 0.00 | 0.10 | 0.10 | 89 | 1007.9 |
| 20260905080100 | 21 | 0 | 0.0 | 1.6 | 0.00 | 0.10 | 0.10 | 89 | 1007.9 |
| 20260905074604 | 21 | 0 | 0.0 | 1.6 | 0.00 | 0.10 | 0.10 | 90 | 1007.8 |
| 20260905073126 | 21 | 0 | 0.0 | 0.0 | 0.00 | 0.10 | 0.10 | 89 | 1008.1 |
| 20260905071602 | 21 | 0 | 0.0 | 0.0 | 0.10 | 0.10 | 0.10 | 88 | 1008.1 |
| 20260905070105 | 21 | 0 | 0.0 | 0.0 | 0.10 | 0.10 | 0.10 | 87 | 1008.2 |
| 20260905064603 | 22 | 0 | 0.0 | 0.0 | 0.10 | 0.10 | 0.10 | 85 | 1008.3 |
| 20260905063118 | 22 | 0 | 0.0 | 3.2 | 0.10 | 0.10 | 0.10 | 82 | 1008.5 |
| 20260905061614 | 23 | 0 | 0.0 | 4.8 | 0.00 | 0.00 | 0.00 | 75 | 1008.7 |
| 20260905060056 | 23 | 0 | 1.6 | 6.4 | 0.00 | 0.00 | 0.00 | 77 | 1008.5 |
| 20260905054601 | 23 | 0 | 0.0 | 3.2 | 0.00 | 0.03 | 0.00 | 79 | 1008.7 |
| 20260905053100 | 23 | 0 | 0.0 | 3.2 | 0.00 | 0.03 | 0.00 | 82 | 1008.6 |
| 20260905051600 | 23 | 0 | 0.0 | 0.0 | 0.00 | 0.03 | 0.00 | 84 | 1008.5 |
| 20260905050106 | 23 | 0 | 0.0 | 0.0 | 0.00 | 0.03 | 0.00 | 85 | 1008.7 |
| 20260905044603 | 23 | 0 | 0.0 | 1.6 | 0.00 | 0.03 | 0.00 | 84 | 1008.8 |
| 20260905043132 | 23 | 0 | 0.0 | 1.6 | 0.00 | 0.03 | 0.00 | 84 | 1009.0 |
| 20260905041555 | 23 | 0 | 0.0 | 3.2 | 0.00 | 0.03 | 0.00 | 84 | 1009.0 |
| 20260905040117 | 24 | 0 | 0.0 | 0.0 | 0.00 | 0.03 | 0.00 | 85 | 1009.1 |
| 20260905034602 | 24 | 0 | 0.0 | 1.6 | 0.00 | 0.03 | 0.03 | 84 | 1009.0 |
| 20260905033101 | 24 | 0 | 0.0 | 0.0 | 0.00 | 0.03 | 0.03 | 84 | 1009.1 |
| 20260905031555 | 24 | 0 | 0.0 | 1.6 | 0.00 | 0.03 | 0.03 | 84 | 1009.0 |
| 20260905030054 | 24 | 0 | 0.0 | 1.6 | 0.00 | 0.03 | 0.03 | 84 | 1009.0 |
| 20260905024557 | 24 | 250 | 0.0 | 3.2 | 0.00 | 0.03 | 0.03 | 84 | 1009.0 |
| 20260905023103 | 24 | 0 | 0.0 | 1.6 | 0.00 | 0.03 | 0.03 | 85 | 1008.9 |
| 20260905021556 | 24 | 0 | 0.0 | 0.0 | 0.00 | 0.03 | 0.03 | 84 | 1008.8 |
| 20260905020051 | 24 | 0 | 0.0 | 0.0 | 0.00 | 0.03 | 0.03 | 84 | 1009.1 |
| 20260905014559 | 24 | 0 | 0.0 | 0.0 | 0.00 | 0.03 | 0.03 | 83 | 1009.1 |
| 20260905013100 | 25 | 0 | 0.0 | 0.0 | 0.00 | 0.03 | 0.03 | 83 | 1009.1 |
| 20260905011555 | 25 | 0 | 0.0 | 0.0 | 0.00 | 0.03 | 0.03 | 83 | 1009.3 |
| 20260905010107 | 25 | 0 | 0.0 | 1.6 | 0.00 | 0.03 | 0.03 | 83 | 1009.2 |
| 20260905004613 | 25 | 0 | 0.0 | 1.6 | 0.00 | 0.03 | 0.03 | 84 | 1008.9 |
| 20260905003053 | 25 | 0 | 0.0 | 0.0 | 0.00 | 0.03 | 0.03 | 84 | 1008.7 |
| 20260905001605 | 25 | 0 | 0.0 | 1.6 | 0.00 | 0.03 | 0.03 | 84 | 1008.5 |
| 20260905000059 | 25 | 0 | 0.0 | 1.6 | 0.00 | 0.03 | 0.03 | 83 | 1008.6 |
| 20260904234558 | 26 | 0 | 0.0 | 0.0 | 0.00 | 0.03 | 0.03 | 81 | 1008.6 |
| 20260904233107 | 26 | 0 | 0.0 | 0.0 | 0.00 | 0.03 | 0.03 | 79 | 1008.7 |
| 20260904231604 | 26 | 0 | 0.0 | 0.0 | 0.00 | 0.03 | 0.03 | 78 | 1008.9 |
| 20260904230108 | 27 | 0 | 0.0 | 0.0 | 0.00 | 0.03 | 0.03 | 76 | 1008.9 |
| 20260904224604 | 27 | 0 | 0.0 | 0.0 | 0.00 | 0.03 | 0.03 | 73 | 1008.8 |
| 20260904223100 | 28 | 0 | 0.0 | 3.2 | 0.00 | 0.03 | 0.03 | 72 | 1008.7 |
| 20260904221605 | 28 | 0 | 0.0 | 1.6 | 0.00 | 0.03 | 0.03 | 70 | 1008.8 |
| 20260904220115 | 28 | 0 | 1.6 | 3.2 | 0.00 | 0.03 | 0.03 | 67 | 1008.8 |
| 20260904214602 | 29 | 0 | 0.0 | 4.8 | 0.00 | 0.03 | 0.03 | 66 | 1008.7 |
| 20260904213109 | 29 | 268 | 1.6 | 6.4 | 0.00 | 0.03 | 0.03 | 65 | 1008.9 |
| 20260904211613 | 28 | 19 | 1.6 | 4.8 | 0.00 | 0.03 | 0.03 | 67 | 1008.5 |
| 20260904210105 | 28 | 243 | 0.0 | 4.8 | 0.00 | 0.03 | 0.03 | 67 | 1008.6 |
| 20260904204617 | 29 | 0 | 1.6 | 4.8 | 0.00 | 0.03 | 0.03 | 64 | 1008.8 |
| 20260904203058 | 30 | 0 | 1.6 | 6.4 | 0.00 | 0.03 | 0.03 | 62 | 1008.9 |
| 20260904201603 | 30 | 259 | 3.2 | 9.7 | 0.00 | 0.03 | 0.03 | 61 | 1008.8 |
| 20260904200100 | 30 | 225 | 3.2 | 8.0 | 0.00 | 0.03 | 0.03 | 61 | 1009.1 |
| 20260904194615 | 30 | 244 | 1.6 | 6.4 | 0.00 | 0.03 | 0.03 | 63 | 1009.3 |
| 20260904193059 | 30 | 245 | 1.6 | 6.4 | 0.00 | 0.03 | 0.03 | 63 | 1009.7 |
| 20260904191602 | 30 | 265 | 4.8 | 8.0 | 0.00 | 0.03 | 0.03 | 62 | 1009.7 |
| 20260904190101 | 30 | 267 | 1.6 | 8.0 | 0.00 | 0.03 | 0.03 | 62 | 1009.8 |
| 20260904184600 | 30 | 276 | 1.6 | 6.4 | 0.00 | 0.03 | 0.03 | 62 | 1009.7 |
| 20260904183116 | 30 | 5 | 3.2 | 9.7 | 0.00 | 0.03 | 0.03 | 63 | 1009.9 |
| 20260904181604 | 30 | 295 | 1.6 | 9.7 | 0.00 | 0.03 | 0.03 | 63 | 1010.0 |
| 20260904180121 | 30 | 276 | 3.2 | 6.4 | 0.00 | 0.03 | 0.03 | 62 | 1009.9 |
| 20260904174608 | 30 | 118 | 3.2 | 8.0 | 0.00 | 0.03 | 0.03 | 62 | 1010.0 |
| 20260904173054 | 30 | 350 | 3.2 | 11.3 | 0.00 | 0.03 | 0.03 | 60 | 1010.0 |
| 20260904171558 | 30 | 277 | 3.2 | 11.3 | 0.00 | 0.03 | 0.03 | 60 | 1010.0 |
| 20260904170059 | 30 | 294 | 4.8 | 9.7 | 0.00 | 0.03 | 0.03 | 62 | 1009.8 |
| 20260904164557 | 30 | 313 | 3.2 | 14.5 | 0.00 | 0.03 | 0.03 | 61 | 1009.9 |
| 20260904163100 | 30 | 360 | 3.2 | 11.3 | 0.00 | 0.03 | 0.03 | 61 | 1010.0 |
| 20260904161620 | 29 | 281 | 1.6 | 14.5 | 0.00 | 0.03 | 0.03 | 62 | 1010.1 |
| 20260904160106 | 29 | 265 | 3.2 | 12.9 | 0.00 | 0.03 | 0.03 | 64 | 1010.1 |
| 20260904154603 | 28 | 259 | 3.2 | 9.7 | 0.00 | 0.03 | 0.03 | 66 | 1010.1 |
| 20260904153103 | 28 | 243 | 3.2 | 14.5 | 0.00 | 0.03 | 0.03 | 68 | 1010.3 |
| 20260904151558 | 28 | 360 | 4.8 | 16.1 | 0.00 | 0.03 | 0.03 | 67 | 1010.4 |
| 20260904150105 | 27 | 213 | 6.4 | 19.3 | 0.00 | 0.03 | 0.03 | 70 | 1010.2 |
| 20260904144609 | 27 | 286 | 4.8 | 11.3 | 0.00 | 0.03 | 0.03 | 72 | 1010.1 |
| 20260904143102 | 27 | 242 | 4.8 | 14.5 | 0.00 | 0.03 | 0.03 | 75 | 1010.2 |
| 20260904141600 | 26 | 261 | 4.8 | 11.3 | 0.00 | 0.03 | 0.03 | 77 | 1010.1 |
| 20260904140059 | 26 | 244 | 6.4 | 12.9 | 0.00 | 0.03 | 0.03 | 79 | 1010.1 |
| 20260904134557 | 26 | 260 | 4.8 | 12.9 | 0.00 | 0.03 | 0.03 | 80 | 1010.1 |
| 20260904133114 | 25 | 248 | 3.2 | 11.3 | 0.00 | 0.03 | 0.03 | 81 | 1010.0 |
| 20260904131556 | 25 | 263 | 4.8 | 12.9 | 0.00 | 0.03 | 0.03 | 82 | 1009.9 |
| 20260904130101 | 25 | 227 | 4.8 | 12.9 | 0.00 | 0.03 | 0.03 | 82 | 1010.0 |
| 20260904124606 | 25 | 266 | 4.8 | 16.1 | 0.00 | 0.03 | 0.03 | 83 | 1010.1 |
| 20260904123057 | 24 | 250 | 4.8 | 14.5 | 0.00 | 0.03 | 0.03 | 85 | 1010.1 |
| 20260904121556 | 24 | 0 | 3.2 | 11.3 | 0.00 | 0.03 | 0.03 | 86 | 1010.0 |
| 20260904120110 | 23 | 270 | 3.2 | 11.3 | 0.00 | 0.03 | 0.03 | 87 | 1010.0 |
| 20260904114602 | 23 | 214 | 1.6 | 11.3 | 0.00 | 0.03 | 0.03 | 89 | 1009.9 |
| 20260904113058 | 23 | 307 | 1.6 | 6.4 | 0.00 | 0.03 | 0.03 | 89 | 1009.9 |
| 20260904111557 | 23 | 233 | 1.6 | 6.4 | 0.00 | 0.03 | 0.03 | 89 | 1009.7 |
| 20260904104601 | 23 | 234 | 1.6 | 4.8 | 0.00 | 0.15 | 0.03 | 90 | 1009.6 |
| 20260904103057 | 23 | 240 | 1.6 | 6.4 | 0.00 | 0.15 | 0.03 | 90 | 1009.6 |
| 20260904101605 | 23 | 240 | 1.6 | 4.8 | 0.00 | 0.15 | 0.03 | 90 | 1009.6 |
| 20260904094558 | 23 | 196 | 0.0 | 6.4 | 0.00 | 0.48 | 0.03 | 90 | 1009.1 |
| 20260904093054 | 23 | 211 | 1.6 | 8.0 | 0.00 | 0.48 | 0.03 | 90 | 1009.2 |